STARLINK-11450, 62518

Orbit data source: Space-Track

STARLINK-11450, 62518 is a payload satellite owned by SpaceX/Seattle (US) in LEO that was launched on Wed, 08 Jan 2025 UTC via an FALCON 9 launch vehicle from the Air Force Eastern Test Range (AFETR). Payload-class satellites include a variety of spacecraft equipped with specific instruments for various scientific and technological missions. These include communications satellites like Starlink; space stations such as the ISS; scientific satellites like the Hubble; Earth observation satellites from companies like Planet Labs, Umbra, and HawkEye 360; GPS; miniature CubeSats for education and research; and military/defense satellites.

Loading next visibility...
Identifier
62518, 2025-004H
Orbit
LEO
Country
Flag of USUS
Related business
Manufacturer
SpaceX/Seattle
Mission
Operational Commercial Communications
Bus & Motor
STARLINK V2MD, Unknown motor
Mass
960 kg wet, ~910 kg dry
Launch date (UTC)
2025-01-08 (2 years ago)
Launch vehicle
FALCON 9
Launch site
Air Force Eastern Test Range (AFETR)
Object type
Payload
Rocket body
Debris
Shape & HBR
Box + 2 Pan, 18.1 m
Radar Cross Section
36.964 m², Large (>1 m²)

Expand to show TLE details & history
Last TLE update: 9 hours ago

TLE from 9 hours ago
0 STARLINK-11450
1 62518U 25004H   26254.76995096  .00191357  00000-0  14573-2 0  9991
2 62518  43.0001  29.1413 0001908 279.9092  80.1561 15.70895663 96475
Epoch: 2026-09-11T18:28Z
TLE epoch observation values (Epoch: 2026-09-11T18:28:43.762Z)
Latitude
0.00001°
Longitude
121.17043°
Altitude
355.888 km
Speed
7.698 km/s
True Right ascension
01h 56m 33s
True Declination
0° 00' 00"
Sunlit
Object was in full shadow at epoch
Visualization orbit readout
Latitude
Unknown
Longitude
Unknown
Altitude
Unknown
Speed
Unknown
Apparent Right ascension
Unknown
Apparent Declination
Unknown
Sunlit
N/A
Visualization observer readout
Local Sidereal Time
20:06:13
Azimuth
Unknown
Elevation
Unknown
Doppler factor
Unknown
Orbital elements
Apogee altitude
359.603 km
Perigee altitude
357.032 km
Semi-major axis
6,736.455 km
Eccentricity
0.00019
Inclination
43.0001°
RAAN
29.1413°
Arg. of periapsis
279.9092°
True anomaly
80.17764°
Mean anomaly
80.1561°
Eccentric anomaly
80.16687°
Mean motion
3.92551 °/min
Orbital period
91.71 mins
BSTAR
0.0014573
Loading maneuver chart data...
Computing Atmospheric mass density...
Loading historical data...
Loading historical data...
Loading historical data...
Loading historical data...
Loading historical data...
Loading historical data...
Loading historical data...

Documentation

Showing up to 5 results
|